Kars, Turkey

7:24 PM +03 on April 24, 2017 (GMT +0300)
Kars

Weather History for LTCF - April, 2013

Change the Weather History Date:

Tuesday, April 23, 2013

  Actual Average Record
Temperature  
Mean Temperature 37 °F -  
Max Temperature 48 °F 59 °F - ()
Min Temperature 26 °F 37 °F - ()
Degree Days  
Heating Degree Days 28    
Moisture  
Dew Point 22 °F    
Average Humidity 59    
Maximum Humidity 100    
Minimum Humidity 26    
Precipitation  
Precipitation 0.00 in 0.09 in - ()
Sea Level Pressure  
Sea Level Pressure 30.03 in    
Wind  
Wind Speed 6 mph ()    
Max Wind Speed 25 mph    
Max Gust Speed 28 mph    
Visibility 6.2 miles    
Events      
T = Trace of Precipitation, MM = Missing Value Source: Averaged Metar Reports

Daily Weather History Graph

Daily Weather History Graph

Search for Another Location

Airport or City:

Trip Planner

Search our weather history database for the weather conditions in past years. The results will help you decide how hot, cold, wet, or windy it might be!

Date:

Astronomy

Apr. 23, 2013 Rise Set
Actual Time 5:17 AM EEST 6:54 PM EEST
Civil Twilight 4:48 AM EEST 7:23 PM EEST
Nautical Twilight 4:13 AM EEST 7:59 PM EEST
Astronomical Twilight 3:36 AM EEST 8:36 PM EEST
Moon 4:24 PM EEST (4/23) 3:33 AM EEST (4/23)
Length of Visible Light 14h 35m
Length of Day
13h 37m
Waxing Gibbous, 92% of the Moon is Illuminated
Apr 23
Waxing Gibbous
Apr 25
Full
May 2
Last Quarter
May 10
New
May 18
First Quarter

Hourly Weather History & Observations

Time (EEST) Temp. Windchill Dew Point Humidity Pressure Visibility Wind Dir Wind Speed Gust Speed Precip Events Conditions
12:50 AM 30.2 °F 23.4 °F 24.8 °F 80% 29.95 in 6.2 mi ENE 6.9 mph - N/A   Mostly Cloudy
1:50 AM 30.2 °F 21.9 °F 24.8 °F 80% 29.95 in 6.2 mi East 9.2 mph - N/A   Mostly Cloudy
2:50 AM 28.4 °F - 26.6 °F 93% 29.95 in 6.2 mi Calm Calm - N/A   Mostly Cloudy
3:00 AM 28 °F - 26 °F 90%  in 6 mi Calm Calm - -   Mostly Cloudy
3:50 AM 28.4 °F - 26.6 °F 93% 29.95 in 6.2 mi Variable 1.2 mph - N/A   Mostly Cloudy
4:50 AM 26.6 °F - 26.6 °F 100% 29.95 in 6.2 mi Calm Calm - N/A   Mostly Cloudy
5:50 AM 28.4 °F - 26.6 °F 93% 29.98 in 6.2 mi North 1.2 mph - N/A   Mostly Cloudy
6:50 AM 33.8 °F - 30.2 °F 87% 30.01 in 6.2 mi Calm Calm - N/A   Mostly Cloudy
7:50 AM 37.4 °F - 26.6 °F 65% 30.01 in 6.2 mi Variable 1.2 mph - N/A   Mostly Cloudy
8:50 AM 41.0 °F 38.0 °F 24.8 °F 53% 30.01 in 6.2 mi WNW 4.6 mph - N/A   Mostly Cloudy
9:00 AM 41 °F - 27 °F 45%  in 6 mi WNW 4.6 mph - -   Mostly Cloudy
9:50 AM 42.8 °F 39.3 °F 23.0 °F 46% 30.04 in 6.2 mi West 5.8 mph - N/A   Mostly Cloudy
10:24 AM 41.0 °F 38.0 °F 24.8 °F 53% 30.04 in 6.2 mi West 4.6 mph - N/A   Mostly Cloudy
10:50 AM 42.8 °F 39.3 °F 24.8 °F 49% 30.04 in 6.2 mi West 5.8 mph - N/A   Mostly Cloudy
11:50 AM 44.6 °F 38.1 °F 24.8 °F 46% 30.04 in 6.2 mi NW 13.8 mph - N/A   Mostly Cloudy
12:50 PM 42.8 °F 37.0 °F 26.6 °F 53% 30.04 in 6.2 mi North 10.4 mph - N/A   Mostly Cloudy
1:50 PM 46.4 °F 39.8 °F 26.6 °F 46% 30.01 in 6.2 mi NNW 16.1 mph 27.6 mph N/A   Mostly Cloudy
2:50 PM 46.4 °F 39.0 °F 21.2 °F 37% 30.01 in 6.2 mi NW 19.6 mph - N/A   Mostly Cloudy
3:00 PM 46 °F - 22 °F 26%  in 6 mi NW 19.6 mph - -   Mostly Cloudy
3:50 PM 42.8 °F 33.1 °F 19.4 °F 39% 30.04 in 6.2 mi NNW 25.3 mph - N/A   Mostly Cloudy
4:50 PM 42.8 °F 33.8 °F 15.8 °F 34% 30.06 in 6.2 mi NNW 21.9 mph - N/A   Scattered Clouds
5:50 PM 41.0 °F - 12.2 °F 31% 30.06 in 6.2 mi Variable 1.2 mph - N/A   Partly Cloudy
6:50 PM 33.8 °F 26.4 °F 8.6 °F 35% 30.09 in 6.2 mi NW 9.2 mph - N/A   Partly Cloudy
7:50 PM 32.0 °F 22.5 °F 12.2 °F 44% 30.12 in - North 12.7 mph - N/A   Clear
8:50 PM 30.2 °F 19.3 °F 17.6 °F 60% 30.12 in - North 15.0 mph - N/A   Clear
9:00 PM 31 °F - 15 °F 38%  in 6 mi North 15.0 mph - -  
9:50 PM 28.4 °F - 17.6 °F 64% 30.12 in - Variable 1.2 mph - N/A   Clear
10:50 PM 28.4 °F 18.0 °F 17.6 °F 64% 30.12 in - ENE 12.7 mph - N/A   Clear
11:50 PM 28.4 °F 23.3 °F 17.6 °F 64% 30.12 in - North 4.6 mph - N/A   Clear